CAPE
141 143 24 0 0 2 102 89 31 19 8 102 193 210 207 204 196 296 224 112 78 227 898 813 667 1007 917 1158 720 545 592 899 1108 1157 1179 1102 1234 1177 1157 1357 1346 1269 1361
182 213 239 59 0 0 0 50 66 68 111 147 108 167 136 192 223 260 132 146 70 243 565 1402 865 1128 1132 942 672 962 911 599 484 733 1138 1080 961 998 968 931 1171 1228 1219
101 178 141 223 31 101 138 51 91 311 272 193 72 95 297 328 215 276 123 41 180 258 251 1171 1294 1117 951 1102 961 918 900 813 808 641 521 826 960 900 992 881 834 922 963
231 148 302 334 289 137 115 169 170 267 276 165 47 67 189 200 203 303 287 155 147 215 127 487 923 1089 1103 809 1037 969 1010 838 890 848 747 582 674 790 886 849 848 825 849
380 191 308 442 359 220 76 139 202 214 237 98 123 302 235 285 341 423 326 279 170 146 114 202 300 193 706 1054 1056 1340 1292 1152 1074 867 783 750 607 730 773 682 713 749 802
417 226 332 630 631 436 120 263 288 232 272 254 230 249 287 418 302 390 369 324 266 215 215 198 121 245 346 288 1279 1228 1235 1303 1307 936 750 823 692 609 659 690 687 567 586
845 419 439 573 624 341 188 331 337 280 177 238 300 225 326 376 392 342 368 322 374 414 415 373 175 84 179 275 220 753 1310 1290 1043 261 220 307 193 512 447 517 572 553 518
1509 820 720 531 811 791 750 601 529 447 410 347 269 275 232 174 222 341 343 464 399 414 473 666 388 238 255 185 230 279 304 786 457 267 171 106 139 216 483 544 600 595 563
1440 1321 911 814 793 753 628 838 692 542 422 553 571 247 224 157 131 142 247 369 535 510 297 167 159 216 261 187 202 280 312 251 252 453 384 149 30 45 193 460 640 602 577
1688 1509 1368 1035 833 753 599 774 919 744 584 386 300 352 373 191 247 145 186 149 177 221 200 108 46 46 295 303 258 251 342 505 297 149 229 310 215 163 177 474 707 634 550
1449 1664 1567 1139 1301 1099 786 698 852 778 737 660 479 433 296 386 370 313 167 161 153 167 85 27 24 63 0 76 174 240 341 458 408 341 344 405 382 386 436 673 633 774 727
1623 1688 1533 1424 1410 1267 1192 1126 1143 966 996 1075 793 658 588 433 313 248 298 282 251 246 196 166 144 150 17 1 64 512 610 713 825 841 777 582 464 525 711 879 848 779 802
1624 1846 1853 1515 1402 1380 1281 1262 1110 1037 1172 959 714 623 711 494 525 541 327 131 184 151 212 259 241 220 121 12 61 119 427 581 408 306 477 628 736 579 559 845 1001 920 945
1240 2173 2115 1642 1538 1295 891 11 49 265 1083 1045 796 642 350 184 104 192 267 203 113 144 190 196 126 127 87 67 7 13 163 167 83 77 91 113 79 119 477 774 569 924 1094
1523 2295 1852 1584 878 599 39 28 207 576 903 859 794 490 420 453 131 328 270 210 172 179 142 161 146 54 10 57 36 16 13 16 19 60 12 37 61 114 180 339 552 398 273
1853 2111 1964 1609 1218 167 42 61 405 706 742 524 661 600 397 486 447 527 430 393 236 218 143 188 189 250 127 65 2 15 17 33 4 0 0 0 61 75 224 145 177 274 346
2150 2212 1692 1385 690 372 232 1073 809 608 516 479 527 592 475 381 330 291 292 243 229 215 262 218 185 152 97 90 21 24 37 19 0 0 0 0 73 94 142 84 90 204 380
1933 1794 1609 1203 721 733 768 959 814 652 502 416 491 418 403 324 213 166 43 19 209 241 170 121 40 97 101 74 34 31 24 0 0 13 36 32 60 128 180 141 137 158 191
2000 1675 1428 1065 1237 1117 818 840 656 245 405 346 278 225 271 295 197 0 0 87 74 32 42 77 116 130 147 102 134 127 83 52 115 162 203 227 242 111 64 42 39 59 71
1408 1318 1438 1283 898 403 156 85 229 221 200 289 198 198 222 98 31 34 14 12 25 29 37 45 52 62 19 8 6 21 41 54 95 241 157 25 1 0 0 1 1 1 1
1365 1485 850 441 74 0 0 27 161 184 211 237 259 147 10 2 6 100 14 62 105 53 34 3 0 0 0 0 0 1 0 1 201 166 14 1 0 0 0 0 0 0 0
1069 793 420 58 0 50 24 87 236 250 200 189 180 0 0 0 0 0 30 224 143 51 9 0 0 0 0 0 0 0 20 68 97 120 176 1 1 0 2 1 0 0 0
1012 616 202 0 5 9 21 82 136 0 20 11 0 0 0 0 0 0 43 99 175 141 58 0 0 0 1 0 0 0 0 32 82 0 198 0 3 2 4 3 1 1 0
711 415 0 0 0 10 25 120 251 0 0 0 0 0 0 0 0 0 20 18 39 39 2 0 0 0 0 0 0 0 0 0 24 0 0 0 2 2 3 3 5 5 3
759 189 0 0 0 11 4 40 477 176 8 0 0 0 0 0 0 0 0 0 0 2 24 0 0 2 0 0 0 0 0 0 0 1 0 2 2 3 2 3 5 4 2
453 560 208 0 0 0 0 39 165 466 295 24 0 0 0 0 0 0 0 0 0 0 0 0 0 9 3 0 0 0 0 0 0 0 0 3 3 2 1 2 2 2 2
CIN
-55 -71 -165 -0 -0 -3 -60 -70 -81 -91 -91 -68 -59 -53 -42 -42 -49 -64 -70 -74 -79 -58 -4 -6 -20 -6 -5 -0 -2 -11 -5 -0 -0 -0 -0 -0 -0 -1 -1 -0 -0 -3 -2
-55 -52 -46 -82 -0 -0 -0 -76 -74 -73 -65 -51 -55 -54 -51 -57 -65 -71 -103 -70 -65 -42 -18 -0 -4 -1 -0 -0 -6 -0 -0 -7 -12 -1 -0 -0 -1 -1 -2 -1 -2 -2 -1
-118 -92 -89 -58 -150 -92 -60 -76 -50 -31 -32 -36 -43 -44 -35 -37 -47 -65 -104 -111 -60 -52 -39 -2 -0 -2 -2 -0 -0 -0 -0 -1 -2 -5 -9 -1 -0 -0 -0 -1 -3 -2 -3
-121 -97 -66 -58 -77 -100 -82 -47 -36 -28 -26 -30 -53 -35 -38 -35 -44 -61 -70 -98 -89 -66 -72 -29 -8 -6 -4 -5 -0 -3 -1 -5 -1 -0 -0 -3 -2 -0 -0 -0 -1 -2 -2
-90 -110 -78 -60 -82 -100 -127 -54 -27 -27 -17 -39 -26 -27 -29 -31 -42 -54 -62 -72 -93 -102 -109 -73 -58 -49 -12 -0 -0 -0 -0 -0 -0 -3 -2 -1 -2 -2 -0 -2 -1 -0 -0
-98 -96 -73 -59 -66 -69 -107 -42 -23 -25 -23 -18 -22 -17 -26 -31 -50 -43 -64 -82 -97 -91 -117 -113 -98 -62 -47 -37 -0 -0 -1 -0 -0 -2 -4 -2 -3 -2 -1 -0 -1 -2 -1
-76 -91 -64 -60 -58 -84 -87 -36 -34 -26 -27 -28 -17 -20 -33 -30 -51 -49 -60 -63 -70 -85 -90 -89 -125 -83 -68 -41 -39 -13 -1 -1 -3 -10 -13 -9 -22 -6 -10 -5 -1 -2 -3
-41 -51 -49 -65 -43 -30 -25 -31 -40 -32 -25 -27 -14 -17 -10 -23 -42 -48 -51 -52 -58 -71 -62 -55 -89 -101 -69 -66 -51 -47 -37 -16 -20 -19 -21 -31 -25 -12 -9 -5 -2 -2 -3
-28 -35 -51 -59 -66 -69 -60 -28 -31 -32 -21 -23 -24 -19 -17 -31 -46 -76 -74 -71 -68 -76 -79 -76 -81 -91 -94 -113 -75 -50 -38 -39 -36 -19 -14 -19 -45 -45 -16 -6 -3 -2 -4
-29 -26 -35 -49 -52 -59 -67 -42 -24 -22 -24 -19 -26 -44 -43 -63 -24 -26 -70 -98 -120 -95 -115 -143 -156 -170 -83 -100 -119 -100 -71 -45 -35 -33 -26 -13 -12 -18 -32 -6 -2 -3 -4
-41 -29 -29 -42 -32 -42 -61 -54 -37 -31 -25 -26 -31 -31 -31 -29 -30 -20 -30 -37 -112 -107 -141 -210 -217 -192 -0 -207 -153 -126 -103 -73 -57 -21 -16 -16 -19 -10 -9 -0 -0 -0 -1
-39 -33 -29 -15 -23 -25 -31 -48 -57 -52 -28 -21 -24 -27 -21 -17 -34 -27 -22 -42 -47 -66 -102 -131 -132 -150 -228 -262 -216 -91 -91 -85 -101 -87 -44 -20 -10 -32 -19 -0 -0 -0 -0
-29 -29 -26 -26 -33 -52 -78 -72 -50 -38 -28 -25 -25 -30 -36 -36 -41 -35 -41 -49 -42 -61 -62 -97 -120 -150 -177 -138 -224 -156 -75 -62 -144 -168 -142 -78 -26 -5 -15 -14 -0 -0 -0
-28 -49 -26 -45 -70 -98 -114 -32 -229 -154 -39 -26 -23 -29 -33 -59 -82 -66 -17 -23 -29 -36 -43 -49 -125 -133 -155 -154 -222 -221 -151 -147 -138 -174 -193 -215 -177 -149 -33 -1 -12 -5 -0
-26 -38 -40 -66 -104 -128 -160 -137 -165 -95 -66 -36 -26 -29 -41 -46 -100 -33 -34 -40 -29 -26 -75 -80 -49 -96 -115 -117 -164 -212 -263 -235 -165 -186 -197 -201 -173 -125 -108 -84 -24 -22 -25
-34 -33 -54 -74 -66 -167 -251 -265 -134 -103 -64 -57 -28 -24 -30 -28 -24 -20 -19 -26 -29 -13 -58 -62 -42 -23 -48 -89 -91 -159 -181 -164 -183 -81 -0 -59 -112 -95 -72 -114 -90 -46 -27
-19 -22 -46 -60 -95 -132 -167 -83 -79 -73 -61 -44 -26 -18 -16 -21 -16 -21 -23 -33 -45 -31 -18 -52 -41 -52 -85 -77 -111 -105 -126 -164 -0 -0 -0 -0 -78 -74 -96 -107 -75 -66 -49
-34 -33 -59 -101 -149 -131 -114 -68 -45 -32 -31 -41 -23 -27 -15 -17 -27 -41 -101 -134 -43 -27 -30 -58 -70 -47 -69 -90 -78 -69 -79 -121 -0 -101 -90 -118 -107 -64 -66 -65 -90 -70 -70
-55 -102 -105 -96 -102 -88 -87 -55 -34 -84 -20 -34 -44 -45 -20 -21 -44 -0 -0 -48 -30 -65 -71 -53 -48 -29 -13 -45 -37 -32 -52 -64 -59 -60 -57 -55 -53 -70 -40 -56 -87 -84 -84
-65 -99 -105 -102 -129 -166 -227 -96 -137 -137 -124 -76 -95 -81 -58 -87 -164 -158 -176 -170 -114 -114 -95 -77 -68 -55 -36 -68 -74 -122 -88 -59 -51 -31 -59 -62 -0 -0 -0 -0 -0 -73 -7
-71 -91 -154 -202 -307 -0 -0 -136 -213 -169 -149 -141 -110 -164 -60 -64 -51 -120 -216 -151 -91 -140 -157 -70 -0 -0 -0 -0 -0 -0 -0 -34 -27 -15 -10 -0 -0 -0 -0 -0 -0 -0 -0
-166 -173 -199 -316 -0 -341 -379 -293 -173 -148 -176 -188 -189 -0 -0 -0 -0 -0 -93 -74 -89 -174 -299 -0 -0 -0 -0 -0 -0 -0 -181 -136 -104 -93 -37 -0 -0 -0 -0 -0 -0 -0 -0
-153 -181 -264 -0 -337 -440 -412 -306 -235 -0 -455 -526 -0 -0 -0 -0 -0 -0 -232 -184 -122 -142 -224 -0 -0 -0 -0 -0 -0 -0 -0 -115 -160 -0 -43 -0 -0 -0 -0 -0 -0 -0 -0
-159 -198 -0 -0 -0 -505 -450 -276 -165 -0 -0 -0 -0 -0 -0 -0 -0 -0 -287 -309 -284 -273 -134 -0 -0 -0 -0 -0 -0 -0 -0 -0 -73 -0 -0 -0 -0 -0 -0 -0 -0 -0 -0
-130 -238 -0 -0 -0 -488 -215 -374 -85 -230 -470 -0 -0 -0 -0 -0 -0 -0 -0 -0 -0 -175 -324 -0 -2 -18 -0 -0 -0 -0 -0 -0 -0 -0 -0 -1 -0 -0 -0 -0 -0 -0 -0
-162 -136 -257 -0 -0 -0 -0 -213 -246 -72 -114 -391 -0 -0 -0 -0 -0 -0 -0 -0 -0 -0 -0 -0 -0 -18 -25 -0 -0 -0 -0 -0 -0 -0 -0 -0 -0 -0 -0 -0 -0 -0 -0
Wind_Speed
22 24 26 25 24 23 22 21 22 22 21 20 20 20 18 12 12 8 8 15 15 15 14 15 16 16 15 14 15 16 15 14 13 13 12 15 17 19 21 21 21 20 16
18 23 25 26 25 23 22 22 22 22 21 19 20 18 16 12 10 7 4 14 15 13 14 13 13 12 14 14 15 15 13 13 12 17 16 13 15 15 20 24 18 18 19
18 20 24 25 24 24 22 22 22 20 22 20 19 15 13 12 10 11 9 11 12 15 14 12 12 11 12 14 14 15 14 13 14 13 18 22 16 18 19 21 22 18 16
20 19 21 23 23 24 23 22 21 20 19 17 18 16 14 13 12 12 12 14 13 11 12 16 16 12 14 16 15 14 14 13 14 15 19 21 23 24 23 20 20 21 18
20 20 20 21 21 21 22 20 20 18 18 15 17 19 19 17 15 14 15 15 14 10 10 13 18 15 17 17 16 16 18 20 19 24 25 25 25 26 24 23 21 21 22
20 20 19 20 19 18 19 19 18 16 15 17 21 21 19 19 18 17 18 15 13 11 10 6 10 15 18 17 18 19 22 23 24 25 26 26 26 26 26 27 27 25 23
21 19 18 18 18 17 18 17 17 17 15 12 20 22 20 18 19 19 13 11 12 8 8 10 3 4 13 19 19 20 20 21 24 27 30 29 28 25 25 24 23 25 26
20 19 17 17 16 15 15 15 13 13 13 11 9 12 13 1 9 15 16 12 12 4 1 8 11 9 7 11 11 20 21 21 21 22 23 23 26 25 24 23 22 21 23
18 17 16 15 15 16 15 13 12 10 11 7 10 8 8 6 11 13 5 7 10 6 5 8 9 13 11 8 14 21 25 23 21 21 24 25 22 21 22 19 20 22 21
17 16 16 16 15 14 14 12 10 9 9 11 5 11 10 7 8 11 9 4 5 6 4 3 4 4 14 4 5 13 19 20 22 24 29 30 29 22 20 19 20 22 24
16 16 14 14 13 12 11 10 10 7 6 6 6 2 8 7 9 4 5 9 12 3 5 1 0 2 4 18 10 5 18 18 23 23 27 28 27 27 25 25 26 25 23
14 14 13 13 12 11 10 9 9 8 5 3 3 4 5 7 10 11 11 8 11 14 10 5 3 2 7 8 13 4 6 6 9 24 34 28 19 19 23 29 31 30 30
12 12 13 13 13 12 11 10 8 6 5 6 6 7 8 13 22 18 13 17 21 20 18 18 11 7 7 12 12 12 21 11 11 22 23 27 35 23 15 17 28 32 30
11 13 12 12 12 12 13 14 18 12 4 2 3 3 21 20 10 30 29 21 26 22 22 20 20 12 15 17 19 19 23 20 19 24 19 26 31 35 41 40 15 19 25
11 12 11 11 11 13 14 18 18 7 10 14 12 9 10 21 18 20 15 19 22 24 25 23 24 15 16 16 18 18 23 35 36 31 29 27 33 33 38 40 45 20 22
10 11 10 9 8 14 12 12 7 12 15 18 18 18 14 14 21 23 24 22 19 20 24 22 22 20 15 10 9 11 8 28 35 29 25 24 38 39 34 37 41 45 30
11 10 8 7 10 14 16 18 18 20 19 20 18 16 15 19 22 23 24 25 22 20 23 24 21 23 21 12 8 6 5 4 5 11 12 18 39 33 20 24 28 22 21
9 7 9 12 13 11 16 17 18 19 20 18 14 13 13 16 20 21 22 23 22 19 18 22 21 25 22 20 11 8 5 7 4 15 23 22 11 15 14 16 20 23 31
7 10 14 14 15 16 19 19 18 17 17 19 20 21 19 19 20 20 21 21 19 19 19 18 20 20 20 23 20 18 18 16 15 5 10 10 23 32 31 32 34 35 37
4 12 15 17 18 19 20 19 19 22 21 22 22 22 21 21 22 22 22 22 21 21 22 22 22 22 22 23 22 23 24 22 25 21 21 20 20 22 24 27 27 28 31
9 14 17 18 19 20 20 20 21 22 22 23 24 24 24 22 21 21 20 21 21 21 23 24 24 22 23 23 26 24 24 26 20 22 22 23 24 25 27 29 30 32 31
10 13 16 17 18 19 20 21 22 22 23 24 24 25 26 27 25 23 21 20 20 21 22 22 22 21 22 21 20 22 25 25 23 23 23 23 24 25 28 28 32 31 30
9 12 14 15 16 18 19 21 22 23 24 25 24 24 22 22 24 23 25 24 23 21 22 22 22 22 21 21 19 18 16 18 21 25 21 21 24 25 27 29 30 29 27
10 11 13 14 16 16 18 19 20 22 23 25 24 23 24 24 22 21 23 25 24 23 21 22 22 22 22 23 24 22 18 16 16 24 25 21 23 25 26 26 27 25 23
12 13 15 15 15 17 18 19 19 19 22 24 24 25 26 27 27 24 24 23 22 20 19 19 20 20 22 25 26 27 28 25 18 18 27 21 19 21 23 24 24 23 21
13 15 15 14 17 18 18 18 18 18 19 20 20 22 25 26 24 24 24 21 23 20 19 18 17 17 21 25 28 30 29 29 24 19 25 23 14 17 20 20 19 19 19
Wind_Direction
219 212 194 177 167 161 153 151 156 159 163 166 175 173 167 145 143 112 117 151 157 156 158 158 159 159 157 154 158 159 160 160 159 160 160 166 170 173 177 177 179 177 170
229 205 201 182 176 166 159 160 161 167 172 172 178 177 174 146 143 127 24 160 163 161 166 167 166 164 166 166 166 167 165 166 166 174 173 171 174 173 180 187 177 179 182
209 207 195 181 175 170 165 167 172 176 190 188 183 167 162 152 148 153 147 152 157 176 176 174 175 175 175 176 175 177 176 175 176 177 182 188 180 182 183 185 188 182 180
192 209 201 184 169 168 166 165 170 183 189 172 177 176 166 156 151 156 160 167 167 169 174 188 187 184 184 185 185 186 187 188 187 186 187 189 192 193 192 189 188 190 187
191 186 183 174 160 159 161 163 172 167 178 157 175 203 200 185 172 162 168 170 169 160 173 185 194 190 191 192 193 194 194 196 196 199 200 198 197 197 196 194 194 194 196
171 167 172 159 141 144 156 162 169 166 167 181 205 207 206 212 197 181 186 176 174 180 181 175 186 195 197 194 196 199 202 203 204 204 205 203 201 199 199 201 201 200 198
157 154 144 131 132 133 147 154 162 174 175 164 208 218 215 208 211 197 188 185 187 182 196 202 247 230 199 204 201 203 204 205 207 209 210 208 205 201 201 200 200 201 203
146 143 120 116 121 129 140 144 137 155 161 142 122 225 199 108 161 193 198 195 200 193 347 329 318 214 270 205 208 207 205 204 205 205 206 206 206 205 204 203 202 202 203
130 129 117 99 115 127 142 139 140 131 153 68 142 122 43 100 23 360 162 185 194 191 176 353 336 232 206 208 209 213 212 211 209 205 206 207 207 208 208 211 208 206 205
124 117 121 112 101 102 119 123 114 132 147 174 47 180 179 6 16 9 21 110 157 181 180 164 177 353 324 309 209 201 207 208 212 212 215 212 208 207 211 212 213 210 209
128 138 107 99 101 95 95 99 76 92 119 152 167 146 355 347 344 348 215 359 353 164 13 170 84 86 19 313 311 229 209 211 215 214 215 212 206 208 208 209 209 209 211
146 128 98 82 83 89 85 83 69 56 90 81 24 356 342 340 340 348 342 346 344 346 360 3 341 289 337 348 318 302 230 254 288 238 231 218 209 203 204 210 213 211 212
132 124 97 89 68 73 70 59 69 102 51 20 359 341 342 334 316 325 331 332 330 332 338 339 356 353 331 325 324 319 305 295 296 291 287 284 272 267 222 214 213 216 212
112 106 98 84 72 65 51 28 1 31 50 58 14 348 326 326 330 294 303 329 323 330 334 339 336 340 330 320 315 315 308 306 294 284 298 288 282 277 264 249 240 220 216
81 87 81 67 75 51 35 13 15 48 31 15 14 27 6 325 330 333 348 343 332 328 327 334 332 344 337 324 321 318 316 288 285 291 293 283 280 285 277 272 261 254 223
85 90 77 80 80 23 38 31 55 30 22 9 8 9 18 15 341 338 339 343 348 338 330 337 340 342 345 339 333 331 340 247 280 289 303 293 275 279 291 283 274 266 278
67 87 64 54 29 12 17 17 16 9 9 6 12 18 19 3 348 343 339 334 341 344 334 338 347 341 346 355 354 342 326 281 310 329 319 306 261 285 286 282 281 275 272
52 78 51 30 32 40 20 17 18 18 13 23 39 37 41 27 9 1 355 351 356 6 6 352 2 348 349 350 3 353 339 340 333 334 315 306 272 238 272 271 281 278 283
73 48 34 39 30 29 17 19 25 36 41 35 33 27 36 39 36 35 29 33 42 37 32 29 18 22 19 360 358 352 346 339 338 310 253 235 246 287 290 294 291 285 286
11 65 44 30 21 19 17 26 30 18 31 29 26 35 40 45 46 50 46 48 50 40 31 28 25 19 15 9 3 350 342 341 329 337 340 340 332 324 318 314 310 304 294
48 43 33 23 21 18 19 32 25 23 37 35 37 35 29 55 61 62 64 55 50 48 41 35 30 30 23 16 1 357 348 338 339 338 336 332 329 325 320 316 312 307 303
16 26 21 25 25 28 44 31 35 43 46 38 41 50 49 46 57 62 68 75 75 65 58 54 54 51 42 38 34 19 354 343 337 337 334 335 333 329 327 327 318 314 311
36 33 34 35 45 53 41 39 39 45 45 48 63 69 78 76 66 68 61 63 69 72 71 68 64 60 56 49 47 47 48 27 1 342 344 338 338 336 332 328 327 327 323
59 56 53 60 63 52 45 45 56 47 45 60 65 70 68 62 74 76 73 65 69 70 76 74 70 69 65 57 50 51 51 52 43 360 351 347 342 339 340 342 345 348 350
78 72 82 78 59 81 78 65 71 62 57 51 60 48 50 37 53 72 72 75 81 85 88 84 79 76 66 57 50 44 36 37 45 33 359 7 3 354 349 348 353 1 5
87 88 78 63 83 99 101 100 87 88 82 80 89 75 53 44 74 74 74 88 76 86 86 87 85 81 68 57 49 44 40 34 44 46 19 18 31 13 358 358 2 9 21